{"data":{"norad_id":67934,"intl_designator":"2026-037C","name":"STARLINK-36861","alt_names":[],"object_type":"PAYLOAD","status":"ACTIVE","operator":null,"country":"US","launch_date":"2026-02-24","launch_site_code":"AFETR","launch_vehicle":null,"mission":null,"orbit_class":"UNKNOWN","rcs_meters":null,"size_class":null,"mass_kg":null,"dimensions":null,"purposes":["comms"],"wikipedia_slug":null,"has_3d_model":false,"image_url":null,"decayed_at":null,"tle_current":{"epoch":"2026-09-19T11:21:36.752256Z","epoch_age_seconds":151952,"freshness":"FRESH","line1":"1 67934U 26037C   26262.47334204  .00012161  00000+0  45050-3 0  9999","line2":"2 67934  43.0021 176.6649 0001397 279.7579  80.3115 15.27596063 32979","mean_motion":15.27596063,"eccentricity":0.0001397,"inclination_deg":43.0021,"raan_deg":176.6649,"arg_perigee_deg":279.7579,"mean_anomaly_deg":80.3115,"bstar":0.0004505,"rev_number":3297,"period_min":94.265757478585,"perigee_km":482.04249708216,"apogee_km":483.95949903882,"semimajor_km":6861.1379980605,"source":"CELESTRAK","updated_at":"2026-09-20T09:00:43.706968Z"}}}